Farmington, NM

5:34 PM MDT on July 24, 2017 (GMT -0600)
Four Corners Regional

Weather History for KFMN - July, 2013

Change the Weather History Date:

Thursday, July 4, 2013

  Actual Average Record
Temperature  
Mean Temperature 78 °F -  
Max Temperature 93 °F 91 °F 100 °F (2007)
Min Temperature 62 °F 57 °F 51 °F (1979)
Cooling Degree Days 12    
Growing Degree Days 28 (Base 50)    
Moisture  
Dew Point 42 °F    
Average Humidity 27    
Maximum Humidity 50    
Minimum Humidity 8    
Precipitation  
Precipitation 0.00 in - - ()
Sea Level Pressure  
Sea Level Pressure 29.80 in    
Wind  
Wind Speed 5 mph (East)    
Max Wind Speed 20 mph    
Max Gust Speed 41 mph    
Visibility 10 miles    
Events      
Averages and records for this station are not official NWS values.
T = Trace of Precipitation, MM = Missing Value Source: NWS Daily Summary

Daily Weather History Graph

Daily Weather History Graph

Search for Another Location

Airport or City:

Trip Planner

Search our weather history database for the weather conditions in past years. The results will help you decide how hot, cold, wet, or windy it might be!

Date:

Astronomy

Jul. 04, 2013 Rise Set
Actual Time 5:59 AM MDT 8:35 PM MDT
Civil Twilight 5:28 AM MDT 9:05 PM MDT
Nautical Twilight 4:51 AM MDT 9:43 PM MDT
Astronomical Twilight 4:08 AM MDT 10:25 PM MDT
Moon 3:16 AM MDT (7/4) 5:44 PM MDT (7/4)
Length of Visible Light 15h 36m
Length of Day
14h 35m
Waning Crescent, 11% of the Moon is Illuminated
Jul 4
Waning Crescent
Jul 8
New
Jul 15
First Quarter
Jul 22
Full
Jul 29
Last Quarter

Hourly Weather History & Observations

Time (MDT) Temp. Dew Point Humidity Pressure Visibility Wind Dir Wind Speed Gust Speed Precip Events Conditions
12:53 AM 73.0 °F 43.0 °F 34% 29.84 in 10.0 mi ENE 6.9 mph - N/A   Clear
1:53 AM 70.0 °F 44.1 °F 39% 29.84 in 10.0 mi East 5.8 mph - N/A   Clear
2:53 AM 69.1 °F 44.1 °F 40% 29.85 in 10.0 mi Calm Calm - N/A   Clear
3:53 AM 66.9 °F 44.1 °F 44% 29.82 in 10.0 mi East 4.6 mph - N/A   Clear
4:53 AM 63.0 °F 42.1 °F 46% 29.82 in 10.0 mi ESE 4.6 mph - N/A   Partly Cloudy
5:53 AM 64.9 °F 44.1 °F 47% 29.81 in 10.0 mi East 4.6 mph - N/A   Partly Cloudy
6:53 AM 63.0 °F 44.1 °F 50% 29.83 in 10.0 mi ESE 4.6 mph - N/A   Clear
7:53 AM 66.9 °F 46.0 °F 47% 29.83 in 10.0 mi East 6.9 mph - N/A   Clear
8:53 AM 72.0 °F 46.9 °F 41% 29.87 in 10.0 mi ESE 5.8 mph - N/A   Clear
9:53 AM 77.0 °F 46.0 °F 33% 29.86 in 10.0 mi Variable 5.8 mph - N/A   Clear
10:53 AM 80.1 °F 45.0 °F 29% 29.84 in 10.0 mi East 4.6 mph - N/A   Clear
11:53 AM 84.0 °F 43.0 °F 24% 29.82 in 8.0 mi East 5.8 mph - N/A   Clear
12:53 PM 87.1 °F 39.9 °F 19% 29.81 in 7.0 mi Variable 3.5 mph - N/A   Clear
1:53 PM 89.1 °F 39.0 °F 17% 29.79 in 7.0 mi WSW 4.6 mph - N/A   Clear
2:53 PM 89.1 °F 36.0 °F 15% 29.77 in 10.0 mi SW 3.5 mph - N/A   Clear
3:53 PM 91.0 °F 36.0 °F 14% 29.75 in 10.0 mi Variable 5.8 mph - N/A   Clear
4:53 PM 93.0 °F 37.9 °F 15% 29.73 in 10.0 mi Variable 3.5 mph - N/A   Clear
5:53 PM 91.9 °F 37.9 °F 15% 29.70 in 10.0 mi Variable 3.5 mph - N/A   Clear
6:53 PM 91.0 °F 37.0 °F 15% 29.71 in 10.0 mi SW 5.8 mph - N/A   Clear
7:53 PM 84.9 °F 39.9 °F 20% 29.72 in 8.0 mi WNW 19.6 mph 41.4 mph N/A   Mostly Cloudy
8:53 PM 84.9 °F 37.0 °F 18% 29.73 in 10.0 mi Calm Calm - N/A   Scattered Clouds
9:34 PM 84.2 °F 39.2 °F 20% 29.95 in 10.0 mi East 16.1 mph 21.9 mph 0.00 in   Partly Cloudy
9:53 PM 81.0 °F 43.0 °F 26% 29.74 in 10.0 mi ESE 15.0 mph - 0.00 in   Clear
10:53 PM 79.0 °F 43.0 °F 28% 29.75 in 10.0 mi East 10.4 mph - N/A   Clear
11:53 PM 73.9 °F 43.0 °F 33% 29.76 in 10.0 mi ENE 3.5 mph - N/A   Clear